[[{"header":{"parameterUnit":"m.s-1","parameterCategory":1,"la1":30.2991,"la2":30.254,"lo1":-89.0895,"lo2":-89.0444,"dy":0.0017,"dx":0.0017,"nx":28,"ny":28,"refTime":"2023-10-14T21:00:00:Z","depth":0,"parameterNumber":2,"parameterNumberName":"U-component_of_WINDS"},"data":[0,0,0,0,0,0,0,0,0,0,0,0,0,0,0,0,0,0,0,0,0,0,0,0,0,0,0,0,0,0,0,0,0,0,0,0,0,0,0,0,0,0,0,0,0,0,0,0,0,0,0,0,0,0,0,0,0,0,3.2564,3.2564,0,3.2565,3.2565,3.2565,3.2522,3.2521,3.252,3.2519,3.2521,3.2522,3.2523,0,0,0,0,0,0,0,0,0,0,0,0,0,3.2525,3.2526,3.2564,3.2564,3.2564,3.2565,3.2565,3.2565,3.2523,3.2521,3.252,3.2519,3.252,3.2522,3.2523,0,0,0,0,0,0,0,0,0,0,0,0,0,3.2536,3.2526,3.2564,3.2543,3.2541,3.2565,3.2565,3.2565,3.2523,3.2521,3.252,3.2518,3.252,3.2522,3.2523,3.2568,0,0,3.2528,3.2529,0,0,0,0,0,0,0,0,3.2535,3.2537,3.2546,3.2544,3.2542,3.2542,3.2552,3.2566,3.2523,3.253,3.2519,3.2517,3.2529,3.253,3.2534,3.2568,3.2568,3.2528,3.2529,3.253,3.2531,0,0,0,0,0,0,0,3.2534,3.2537,3.2564,3.2546,3.2544,3.2534,3.2533,3.2555,3.2539,3.2529,3.2526,3.2527,3.2528,3.2533,3.2534,3.2568,3.2528,3.253,3.2531,3.2532,3.2641,3.2643,0,0,0,0,0,0,3.2537,3.2537,3.2564,3.2564,3.2534,3.2536,3.2535,3.2544,3.2539,3.2536,3.2528,3.2525,3.2531,3.2532,3.2534,3.2587,3.253,3.2532,3.2533,3.2639,3.2642,3.2644,0,0,0,0,0,0,3.2536,3.2539,3.2564,3.255,3.2552,3.2538,3.2548,3.2545,3.2549,3.2538,3.2535,3.2536,3.2529,3.2531,3.256,3.2586,3.2533,3.2534,3.2637,3.264,3.2643,3.2693,0,0,0,0,0,0,3.2535,3.2539,3.2556,3.255,3.2553,3.259,3.255,3.2546,3.2552,3.2548,3.2544,3.2542,3.2528,3.2558,3.2562,3.2588,3.2535,3.2635,3.2638,3.2642,3.2689,3.2697,3.2704,0,0,0,0,0,3.2534,3.2569,3.2557,3.256,3.2573,3.2592,3.2593,3.2576,3.2555,3.2571,3.2565,3.2542,3.2583,3.2561,3.2565,3.2592,3.2633,3.2637,3.2642,3.2685,3.2696,3.2704,0,0,0,0,0,0,3.2577,3.2568,3.2554,3.2589,3.2592,3.2585,3.2605,3.2587,3.2596,3.2591,3.257,3.257,3.2603,3.26,3.2576,3.2636,3.2604,3.261,3.2636,3.2646,3.2653,3.2653,3.2537,0,0,0,0,0,3.2591,3.2607,3.2598,3.263,3.2632,3.2619,3.2626,3.2613,3.2615,3.2616,3.2611,3.2614,3.2627,3.2636,3.2648,3.2689,3.2688,3.2709,3.2717,3.2723,3.2728,3.2751,3.2761,3.2658,3.2658,3.2658,0,0,3.2619,3.2616,3.2627,3.2639,3.2639,3.2657,3.262,3.2639,3.2652,3.2618,3.2646,3.2643,3.2645,3.268,3.2695,3.2679,3.2757,3.2729,3.2734,3.2735,3.2756,3.2766,3.2775,3.2661,3.266,3.266,0,0,3.268,3.2679,3.2706,3.2708,3.271,3.2701,3.2708,3.2704,3.2701,3.2728,3.2704,3.2719,3.2743,3.2745,3.275,3.2815,3.2795,3.282,3.2859,3.2882,3.289,3.2897,3.2921,3.293,3.2824,3.2825,3.2825,0,3.2715,3.274,3.2722,3.2744,3.275,3.2722,3.275,3.2752,3.2758,3.2763,3.2745,3.2775,3.2774,3.2811,3.2827,3.2831,3.2839,3.2819,3.289,3.2897,3.2904,3.2926,3.2935,3.2827,3.2827,3.2827,3.2827,0,3.2783,3.2801,3.2823,3.283,3.2839,3.2863,3.285,3.2861,3.2849,3.2842,3.2871,3.287,3.2881,3.2889,3.2876,3.2925,3.2915,3.2894,3.2861,3.2917,3.2937,3.2946,3.2832,3.2831,3.283,3.2829,0,0,3.2869,3.2868,3.2876,3.288,3.2881,3.2895,3.2919,3.2931,3.2942,3.2947,3.2967,3.2989,3.2971,3.2976,3.2964,3.2984,3.3037,3.296,3.296,3.2975,3.3091,3.3106,3.3117,3.3024,3.3026,3.3027,3.3091,0,3.2928,3.2969,3.2955,3.2997,3.3015,3.299,3.3011,3.3015,3.301,3.3024,3.3019,3.3035,3.3009,3.3012,3.3031,3.3026,3.3059,3.3021,3.3043,3.3044,3.3043,3.3127,3.3143,3.3204,3.3099,3.31,3.3101,0,3.3002,3.3012,3.3056,3.3056,3.3063,3.3082,3.3093,3.3107,3.3112,3.3107,3.3114,3.3098,3.3123,3.3092,3.3126,3.3101,3.3109,3.3108,3.311,3.3111,3.3076,3.3131,3.3222,3.3232,3.3114,3.3113,3.3112,0,3.3061,3.3085,3.3115,3.3119,3.312,3.3134,3.3135,3.3138,3.3147,3.3157,3.3163,3.3175,3.3182,3.3193,3.3181,3.3159,3.3218,3.3185,3.3215,3.3216,3.3228,3.3227,3.3322,3.3234,3.3234,3.3233,3.3233,0,3.3129,3.3157,3.3142,3.316,3.3192,3.3176,3.3208,3.3206,3.3209,3.3227,3.3206,3.3224,3.3208,3.3224,3.3215,3.3246,3.3249,3.3246,3.3244,3.3248,3.3249,3.3253,3.3248,3.3236,3.3235,3.3235,3.3234,0,3.3199,3.319,3.3221,3.322,3.3221,3.3244,3.3244,3.3261,3.3256,3.3279,3.3284,3.3276,3.3294,3.3284,3.3303,3.3297,3.3337,3.3329,3.3336,3.3333,3.3364,3.3362,3.3465,3.3479,3.3382,3.3383,3.3384,0,3.3242,3.3264,3.3266,3.3277,3.328,3.3297,3.3307,3.3293,3.3304,3.3312,3.3329,3.3346,3.3358,3.3389,3.3385,3.34,3.3392,3.3427,3.3394,3.3398,3.3393,3.3392,3.3394,3.3434,3.3435,3.3436,3.3437,0,3.3321,3.3316,3.333,3.3344,3.3356,3.3366,3.3375,3.3385,3.3372,3.3385,3.3404,3.3414,3.3434,3.3452,3.3465,3.3467,3.345,3.3447,3.3455,3.346,3.3463,3.3462,3.3354,3.3445,3.3444,3.3443,3.3443,3.3443,3.3379,3.3398,3.3403,3.342,3.3425,3.3434,3.3451,3.3449,3.3464,3.348,3.3471,3.3494,3.35,3.3516,3.352,3.3538,3.3524,3.3535,3.3538,3.3541,3.3545,3.3461,3.354,3.354,3.354,3.354,3.3539,0,3.3457,3.3459,3.3476,3.3489,3.3503,3.3487,3.3496,3.3509,3.3529,3.3536,3.3549,3.3572,3.359,3.3588,3.3604,3.3619,3.3612,3.3624,3.3623,3.3623,3.3557,3.3548,3.363,3.363,3.363,3.363,3.363,3.363,3.3499,3.353,3.3526,3.356,3.3562,3.3584,3.3591,3.36,3.3605,3.3632,3.3647,3.3646,3.365,3.3666,3.3682,3.3681,3.3688,3.3703,3.3699,3.3637,3.3628,3.3619,3.3612,3.3705,3.3705,3.3765,3.3765,3.3766]},{"header":{"parameterUnit":"m.s-1","parameterCategory":1,"la1":30.2991,"la2":30.254,"lo1":-89.0895,"lo2":-89.0444,"dy":0.0017,"dx":0.0017,"nx":28,"ny":28,"refTime":"2023-10-14T21:00:00:Z","depth":0,"parameterNumber":3,"parameterNumberName":"V-component_of_WINDS"},"data":[0,0,0,0,0,0,0,0,0,0,0,0,0,0,0,0,0,0,0,0,0,0,0,0,0,0,0,0,0,0,0,0,0,0,0,0,0,0,0,0,0,0,0,0,0,0,0,0,0,0,0,0,0,0,0,0,0,0,-6.9572,-6.9573,0,-6.9647,-6.9648,-6.9649,-6.9608,-6.9606,-6.9604,-6.9602,-6.9674,-6.9678,-6.9681,0,0,0,0,0,0,0,0,0,0,0,0,0,-6.9388,-6.9392,-6.9572,-6.9573,-6.9574,-6.9647,-6.9648,-6.9649,-6.9608,-6.9606,-6.9603,-6.9601,-6.9673,-6.9677,-6.9682,0,0,0,0,0,0,0,0,0,0,0,0,0,-6.9466,-6.9393,-6.9572,-6.9562,-6.9562,-6.9647,-6.9648,-6.965,-6.9609,-6.9605,-6.9602,-6.96,-6.9671,-6.9677,-6.9682,-6.978,0,0,-6.97,-6.9702,0,0,0,0,0,0,0,0,-6.9462,-6.9473,-6.9563,-6.9563,-6.9563,-6.9615,-6.961,-6.9693,-6.9609,-6.9591,-6.9602,-6.9598,-6.9656,-6.9663,-6.9684,-6.9783,-6.9786,-6.97,-6.9704,-6.9706,-6.9708,0,0,0,0,0,0,0,-6.9457,-6.947,-6.9602,-6.9564,-6.9564,-6.9553,-6.9561,-6.9626,-6.964,-6.9592,-6.9589,-6.9599,-6.9656,-6.9679,-6.9685,-6.9787,-6.97,-6.9705,-6.9709,-6.9711,-6.9971,-6.9974,0,0,0,0,0,0,-6.9452,-6.9465,-6.9599,-6.9604,-6.9504,-6.9559,-6.9567,-6.9601,-6.9639,-6.9642,-6.9602,-6.9597,-6.967,-6.9679,-6.9688,-6.9805,-6.9706,-6.9712,-6.9715,-6.9968,-6.9972,-6.9975,0,0,0,0,0,0,-6.9449,-6.9465,-6.9596,-6.9534,-6.955,-6.9565,-6.9604,-6.9605,-6.9627,-6.9646,-6.9648,-6.9622,-6.9668,-6.968,-6.9758,-6.9807,-6.9714,-6.972,-6.9964,-6.9969,-6.9974,-7.004,0,0,0,0,0,0,-6.9444,-6.9464,-6.9501,-6.9535,-6.9553,-6.9666,-6.9607,-6.9608,-6.9638,-6.9632,-6.9666,-6.9669,-6.9667,-6.9749,-6.9764,-6.9813,-6.9724,-6.9959,-6.9966,-6.9972,-7.0033,-7.0046,-7.0058,0,0,0,0,0,-6.9437,-6.9515,-6.9504,-6.952,-6.9601,-6.9669,-6.9679,-6.9677,-6.9642,-6.968,-6.9692,-6.9668,-6.98,-6.9758,-6.9773,-6.9825,-6.9956,-6.9964,-6.9972,-7.0028,-7.0044,-7.0058,0,0,0,0,0,0,-6.9484,-6.952,-6.9507,-6.9599,-6.9632,-6.9662,-6.9709,-6.9694,-6.9735,-6.9728,-6.9722,-6.973,-6.9811,-6.9826,-6.9779,-6.9922,-6.9872,-6.9883,-6.991,-6.9925,-6.9937,-6.9932,-6.9729,0,0,0,0,0,-6.9506,-6.956,-6.9587,-6.9665,-6.9683,-6.9694,-6.9723,-6.9718,-6.9751,-6.9764,-6.9782,-6.9814,-6.9863,-6.9895,-6.994,-7.0035,-7.0042,-7.0079,-7.0091,-7.0101,-7.0111,-7.0163,-7.018,-7.0001,-7.0001,-7.0001,0,0,-6.955,-6.9576,-6.961,-6.9676,-6.97,-6.9755,-6.9705,-6.9765,-6.9805,-6.9773,-6.9848,-6.9863,-6.9898,-6.9986,-7.0025,-7.0,-7.0162,-7.0111,-7.0119,-7.0123,-7.0173,-7.019,-7.0205,-7.0006,-7.0005,-7.0004,0,0,-6.9659,-6.9684,-6.9753,-6.978,-6.9819,-6.9826,-6.9843,-6.9877,-6.9886,-6.9962,-6.9939,-6.9987,-7.007,-7.0097,-7.0121,-7.0243,-7.0222,-7.0258,-7.0322,-7.0373,-7.0387,-7.04,-7.0444,-7.0459,-7.0267,-7.0267,-7.0268,0,-6.9708,-6.9792,-6.979,-6.9852,-6.9882,-6.9858,-6.9927,-6.9953,-7.0004,-7.0025,-6.9997,-7.0103,-7.0125,-7.0219,-7.0249,-7.0269,-7.0288,-7.0253,-7.0386,-7.0398,-7.041,-7.0451,-7.0468,-7.0272,-7.0271,-7.0271,-7.027,0,-6.9851,-6.9909,-6.996,-7.0013,-7.0048,-7.0114,-7.0121,-7.0157,-7.015,-7.016,-7.0238,-7.0264,-7.0315,-7.0337,-7.0329,-7.0431,-7.0414,-7.0386,-7.0336,-7.0431,-7.047,-7.0486,-7.0277,-7.0276,-7.0275,-7.0274,0,0,-6.9989,-7.0043,-7.0062,-7.0086,-7.0129,-7.0174,-7.0238,-7.0291,-7.0322,-7.0358,-7.0412,-7.0485,-7.046,-7.0488,-7.0483,-7.0529,-7.0624,-7.0495,-7.0496,-7.0519,-7.0738,-7.0759,-7.0777,-7.0611,-7.0614,-7.0617,-7.0735,0,-7.0101,-7.0217,-7.0218,-7.0323,-7.0377,-7.0356,-7.0413,-7.0445,-7.0456,-7.0503,-7.0514,-7.0566,-7.0529,-7.0546,-7.059,-7.0604,-7.0668,-7.0595,-7.0661,-7.0663,-7.0653,-7.0798,-7.0819,-7.093,-7.075,-7.0753,-7.0755,0,-7.0247,-7.0292,-7.0403,-7.044,-7.0463,-7.0514,-7.0563,-7.0608,-7.0644,-7.0649,-7.0682,-7.0671,-7.0736,-7.0685,-7.0774,-7.0725,-7.0752,-7.0762,-7.0767,-7.0772,-7.0714,-7.0807,-7.0965,-7.0981,-7.0779,-7.0777,-7.0775,0,-7.0338,-7.0425,-7.0504,-7.0526,-7.0571,-7.0607,-7.0627,-7.066,-7.0692,-7.0735,-7.0755,-7.0804,-7.0831,-7.0868,-7.0871,-7.0833,-7.0962,-7.091,-7.0967,-7.0967,-7.0994,-7.0993,-7.1159,-7.1012,-7.1012,-7.1012,-7.1011,0,-7.0463,-7.0532,-7.0546,-7.0594,-7.0671,-7.0672,-7.0748,-7.0764,-7.0795,-7.0845,-7.0829,-7.0877,-7.0877,-7.0926,-7.0928,-7.1002,-7.1014,-7.102,-7.1019,-7.1021,-7.1021,-7.1038,-7.1031,-7.1016,-7.1015,-7.1014,-7.1013,0,-7.0577,-7.0589,-7.0673,-7.071,-7.0721,-7.0776,-7.0807,-7.0853,-7.0864,-7.0928,-7.0943,-7.096,-7.1016,-7.1023,-7.1087,-7.1089,-7.1179,-7.117,-7.1167,-7.1166,-7.1223,-7.1218,-7.1406,-7.1431,-7.1268,-7.127,-7.1271,0,-7.0656,-7.0709,-7.0752,-7.0786,-7.0809,-7.0864,-7.0897,-7.09,-7.0935,-7.0982,-7.1022,-7.1077,-7.1122,-7.1212,-7.1229,-7.1279,-7.1271,-7.1334,-7.1279,-7.1279,-7.1273,-7.127,-7.1275,-7.1345,-7.1346,-7.1348,-7.1349,0,-7.0794,-7.0799,-7.0848,-7.0901,-7.0943,-7.0984,-7.1022,-7.105,-7.1058,-7.1099,-7.1157,-7.1192,-7.126,-7.1315,-7.1365,-7.1384,-7.1368,-7.1367,-7.1383,-7.1385,-7.1381,-7.1384,-7.1197,-7.1362,-7.1361,-7.136,-7.1359,-7.1359,-7.0893,-7.094,-7.0979,-7.1036,-7.1066,-7.1103,-7.1148,-7.1166,-7.1216,-7.1273,-7.1271,-7.1336,-7.1372,-7.1437,-7.146,-7.151,-7.1489,-7.1512,-7.1518,-7.1524,-7.153,-7.1374,-7.1519,-7.1519,-7.1518,-7.1518,-7.1518,0,-7.1032,-7.1056,-7.1109,-7.1165,-7.1209,-7.1193,-7.1236,-7.1273,-7.1331,-7.1367,-7.1412,-7.148,-7.1534,-7.1556,-7.1609,-7.1644,-7.1639,-7.1658,-7.1655,-7.166,-7.1545,-7.1526,-7.1662,-7.1662,-7.1662,-7.1662,-7.1662,-7.1662,-7.1109,-7.1188,-7.1197,-7.1291,-7.1315,-7.138,-7.1406,-7.144,-7.1469,-7.1546,-7.1592,-7.1607,-7.1637,-7.1692,-7.1741,-7.1746,-7.1766,-7.1789,-7.1791,-7.1683,-7.1668,-7.1654,-7.1636,-7.1793,-7.1793,-7.1901,-7.1902,-7.1903]}]]